Weather History for Lincoln, NE

Change the Weather History Date:

Saturday, October 15, 2011

  Actual Average Record
Temperature  
Mean Temperature 55 °F 54 °F  
Max Temperature 75 °F 66 °F 91 °F (1938)
Min Temperature 35 °F 41 °F 22 °F (1943)
Degree Days  
Heating Degree Days 10 12  
Month to date heating degree days 49 142  
Since 1 July heating degree days 206 240  
Cooling Degree Days 0 0  
Month to date cooling degree days 37 12  
Year to date cooling degree days 1296 1170  
Growing Degree Days 5 (Base 50)    
Moisture  
Dew Point 37 °F    
Average Humidity 58    
Maximum Humidity 89    
Minimum Humidity 27    
Precipitation  
Precipitation 0.00 in 0.07 in 1.12 in (1928)
Month to date precipitation 0.92 1.05  
Year to date precipitation 25.92 25.65  
Snow  
Snow 0.00 in 0.00 in - ()
Month to date snowfall 0.0 0.1  
Since 1 July snowfall 0.0 0.1  
Snow Depth 0.00 in    
Sea Level Pressure  
Sea Level Pressure 29.95 in    
Wind  
Wind Speed 9 mph (SSW)    
Max Wind Speed 26 mph    
Max Gust Speed 31 mph    
Visibility 10 miles    
Events      
T = Trace of Precipitation, MM = Missing Value Source: NWS Daily Summary

Daily Weather History Graph

Daily Weather History Graph

Search for Another Location

Airport:

Trip Planner

Search our weather history database for the weather conditions in past years. The results will help you decide how hot, cold, wet, or windy it might be!

Date:

Astronomy

Oct. 15, 2011 Rise Set
Actual Time 7:38 AM CDT 6:46 PM CDT
Civil Twilight 7:10 AM CDT 7:14 PM CDT
Nautical Twilight 6:38 AM CDT 7:46 PM CDT
Astronomical Twilight 6:06 AM CDT 8:18 PM CDT
Moon 8:43 PM CDT (10/15) 11:04 AM CDT (10/15)
Length of Visible Light 12h 04m
Length of Day
11h 08m
Waning Gibbous, 89% of the Moon is Illuminated
Oct 15
Waning Gibbous
Oct 19
Last Quarter
Oct 26
New
Nov 2
First Quarter
Nov 10
Full

Hourly Weather History & Observations

Time (CDT) Temp. Windchill Dew Point Humidity Pressure Visibility Wind Dir Wind Speed Gust Speed Precip Events Conditions
12:54 AM 44.1 °F - 30.9 °F 60% 30.08 in 10.0 mi Calm Calm - N/A   Clear
1:54 AM 44.1 °F 41.5 °F 30.9 °F 60% 30.08 in 10.0 mi West 4.6 mph - N/A   Clear
2:54 AM 41.0 °F - 32.0 °F 70% 30.09 in 10.0 mi Calm Calm - N/A   Partly Cloudy
3:54 AM 39.2 °F 37.0 °F 32.0 °F 75% 30.08 in 10.0 mi SSW 3.5 mph - N/A   Clear
4:54 AM 37.0 °F 34.5 °F 32.0 °F 82% 30.09 in 10.0 mi South 3.5 mph - N/A   Clear
5:54 AM 37.9 °F - 30.9 °F 76% 30.09 in 10.0 mi Calm Calm - N/A   Clear
6:54 AM 36.0 °F 32.1 °F 30.9 °F 82% 30.10 in 10.0 mi South 4.6 mph - N/A   Clear
7:54 AM 35.6 °F - 32.0 °F 87% 30.09 in 10.0 mi Calm Calm - N/A   Partly Cloudy
8:54 AM 39.9 °F 37.8 °F 35.1 °F 83% 30.10 in 10.0 mi South 3.5 mph - N/A   Clear
9:54 AM 46.9 °F - 36.0 °F 66% 30.09 in 10.0 mi Calm Calm - N/A   Clear
10:54 AM 55.0 °F - 37.0 °F 51% 30.08 in 10.0 mi Variable 4.6 mph - N/A   Clear
11:54 AM 62.1 °F - 32.0 °F 32% 30.04 in 10.0 mi South 12.7 mph - N/A   Clear
12:54 PM 64.9 °F - 35.1 °F 33% 29.99 in 10.0 mi South 13.8 mph - N/A   Clear
1:54 PM 68.0 °F - 35.1 °F 30% 29.92 in 10.0 mi South 19.6 mph 26.5 mph N/A   Clear
2:54 PM 72.0 °F - 37.0 °F 28% 29.88 in 10.0 mi SSW 17.3 mph 28.8 mph N/A   Clear
3:54 PM 73.9 °F - 37.9 °F 27% 29.85 in 10.0 mi SW 21.9 mph 31.1 mph N/A   Clear
4:54 PM 75.2 °F - 41.0 °F 29% 29.82 in 10.0 mi SW 18.4 mph 26.5 mph N/A   Clear
5:54 PM 73.9 °F - 43.0 °F 33% 29.81 in 10.0 mi SSW 11.5 mph - N/A   Clear
6:54 PM 62.1 °F - 46.0 °F 56% 29.80 in 10.0 mi South 9.2 mph - N/A   Clear
7:54 PM 57.0 °F - 45.0 °F 64% 29.80 in 10.0 mi South 6.9 mph - N/A   Clear
8:54 PM 53.1 °F - 45.0 °F 74% 29.78 in 10.0 mi South 10.4 mph - N/A   Clear
9:54 PM 66.0 °F - 44.1 °F 45% 29.75 in 10.0 mi South 13.8 mph - N/A   Clear
10:54 PM 64.9 °F - 44.1 °F 47% 29.74 in 10.0 mi SSW 12.7 mph - N/A   Clear
11:54 PM 63.0 °F - 44.1 °F 50% 29.72 in 10.0 mi SSW 12.7 mph - N/A   Clear